Flag for France Weather past 2 weeks in Besançon, France

Now
82 °F

Clear.


Feels Like: 83 °F
Forecast: 60 / 74 °F
Wind: 3 mph from Northwest

Location: Dole Tavaux

Current Time: Aug 1, 2014 at 4:37:49 PM

Latest Report: Aug 1, 2014 at 4:00 PM


Visibility: N/A

Pressure: 29.80 "Hg

Humidity: 48%

Dew point: 61 °F

Location of BesançonLocation

Historic Weather in Besançon — Graph

°F

Besançon temperature yesterday

Maximum temperature yesterday: 79 °F (at 3:30 PM)
Minimum temperature yesterday: 54 °F (at 6:00 AM)
Average temperature yesterday: 68 °F

Past Weeks' High & Low Weather Summary

 TemperatureHumidityPressure
High93 °F (Jul 18, 5:30 PM)100% (Jul 21, 8:00 AM)30.09 "Hg (Jul 21, 8:00 AM)
Low54 °F (Jul 31, 6:00 AM)27% (Jul 17, 3:30 PM)29.80 "Hg (Aug 1, 3:30 PM)
Average69 °F77%29.94 "Hg
* Reported Jul 17 3:00 PM — Aug 1 3:30 PM, Besançon, Weather by CustomWeather, © 2014

Note: Actual official high and low records may vary slightly from our data, if they occured in-between our weather recording intervals... More about our weather records

Advertising

Besançon weather history for previous 24 hours

 ConditionsComfort  
Time TempWeatherWind HumidityBarometerVisibility
3:30 PM
Aug 1
81 °FBroken clouds.2 mph51%29.80 "HgN/A
3:00 PM79 °FPartly sunny.3 mph54%29.83 "HgN/A
2:30 PM81 °FBroken clouds.3 mph54%29.83 "HgN/A
2:00 PM81 °FPassing clouds.2 mph51%29.83 "HgN/A
1:30 PM79 °FScattered clouds.5 mph58%29.83 "HgN/A
1:00 PM77 °FPartly sunny.5 mph61%29.83 "HgN/A
12:30 PM79 °FClear.2 mph61%29.83 "HgN/A
12:00 PM75 °FClear.2 mph69%29.86 "HgN/A
11:30 AM75 °FClear.2 mph69%29.86 "HgN/A
11:00 AM72 °FClear.2 mph78%29.86 "HgN/A
10:30 AM72 °FClear.1 mph69%29.86 "HgN/A
10:00 AM68 °FClear.2 mph78%29.86 "HgN/A
9:30 AM68 °FClear.No wind78%29.86 "HgN/A
9:00 AM66 °FClear.No wind83%29.86 "HgN/A
8:30 AM64 °FClear.2 mph83%29.86 "HgN/A
8:00 AM63 °FClear.No wind88%29.86 "HgN/A
7:30 AM61 °FClear.1 mph94%29.86 "HgN/A
7:00 AM59 °FClear.2 mph94%29.89 "HgN/A
6:30 AM57 °FClear.2 mph94%29.89 "HgN/A
5:30 AM59 °FClear.1 mph94%29.89 "Hg5 mi
5:00 AM59 °FClear.2 mph94%29.89 "HgN/A
4:30 AM57 °FClear.2 mph94%29.89 "HgN/A
4:00 AM59 °FClear.1 mph94%29.89 "HgN/A
3:30 AM59 °FClear.3 mph94%29.89 "HgN/A
3:00 AM59 °FFog.1 mph94%29.89 "Hg2 mi
2:30 AM61 °FClear.No wind94%29.89 "HgN/A
2:00 AM61 °FClear.2 mph94%29.92 "HgN/A
1:30 AM64 °FClear.2 mph83%29.92 "HgN/A
1:00 AM64 °FClear.1 mph83%29.92 "HgN/A
12:30 AM66 °FClear.2 mph83%29.92 "HgN/A
12:00 AM66 °FClear.3 mph78%29.92 "HgN/A
11:30 PM
Jul 31
68 °FClear.5 mph73%29.92 "HgN/A
11:00 PM68 °FClear.5 mph78%29.92 "HgN/A
10:30 PM68 °FClear.2 mph78%29.92 "HgN/A
10:00 PM68 °FClear.3 mph73%29.92 "HgN/A
9:30 PM72 °FClear.5 mph65%29.92 "HgN/A
9:00 PM72 °FClear.6 mph65%29.92 "HgN/A
8:30 PM75 °FClear.6 mph57%29.92 "HgN/A
8:00 PM77 °FClear.8 mph54%29.92 "HgN/A
7:30 PM77 °FClear.9 mph51%29.92 "HgN/A
7:00 PM79 °FClear.9 mph48%29.92 "HgN/A
6:30 PM79 °FPassing clouds.9 mph51%29.92 "HgN/A
6:00 PM79 °FPassing clouds.9 mph51%29.92 "HgN/A
5:30 PM79 °FPassing clouds.8 mph51%29.92 "HgN/A
5:00 PM79 °FClear.8 mph51%29.92 "HgN/A
4:30 PM79 °FScattered clouds.10 mph48%29.92 "HgN/A
4:00 PM79 °FPassing clouds.8 mph54%29.95 "HgN/A
Weather by CustomWeather, © 2014

See weather overviewHow to use our weather pages